VK2XSE Weather Reports


Display with metric or nautical units.
time (UTC)temp
F
wind
direction
speed
MPH
gust
MPH
rain 1hr
in
rain 24hr
in
rain mn
in
humidity
%
barometer
mb
20260904060017 71 293 4.0 9.0 0.00 0.00 0.00 45 1018.7
20260904055017 71 315 2.0 4.0 0.00 0.00 0.00 47 1018.7
20260904054017 71 315 3.0 7.0 0.00 0.00 0.00 47 1018.6
20260904053017 71 293 4.0 12.0 0.00 0.00 0.00 47 1018.8
20260904052017 71 293 1.0 3.0 0.00 0.00 0.00 47 1018.7
20260904051017 72 293 4.0 10.0 0.00 0.00 0.00 46 1018.6
20260904050017 72 293 2.0 3.0 0.00 0.00 0.00 45 1018.6
20260904045017 72 0 2.0 6.0 0.00 0.00 0.00 47 1018.6
20260904044017 72 270 2.0 6.0 0.00 0.00 0.00 46 1018.5
20260904043017 73 315 3.0 7.0 0.00 0.00 0.00 46 1018.5
20260904042017 72 315 3.0 8.0 0.00 0.00 0.00 46 1018.6
20260904041017 71 315 2.0 6.0 0.00 0.00 0.00 49 1018.7
20260904040017 71 293 2.0 7.0 0.00 0.00 0.00 47 1018.8
20260904035017 72 315 2.0 5.0 0.00 0.00 0.00 46 1018.8
20260904034017 71 0 1.0 3.0 0.00 0.00 0.00 49 1018.9
20260904033017 71 293 2.0 5.0 0.00 0.00 0.00 49 1019.0
20260904032017 70 270 2.0 7.0 0.00 0.00 0.00 49 1019.3
20260904031017 70 315 3.0 6.0 0.00 0.00 0.00 50 1019.5
20260904030019 70 338 1.0 4.0 0.00 0.00 0.00 50 1019.5
20260904025019 70 0 2.0 5.0 0.00 0.00 0.00 51 1019.9
20260904024019 69 293 2.0 7.0 0.00 0.00 0.00 52 1020.0
20260904023019 70 293 2.0 6.0 0.00 0.00 0.00 51 1020.1
20260904022019 70 248 3.0 8.0 0.00 0.00 0.00 50 1020.6
20260904021019 70 338 2.0 11.0 0.00 0.00 0.00 52 1020.5
20260904020019 70 293 2.0 7.0 0.00 0.00 0.00 52 1020.4
20260904015019 69 315 1.0 4.0 0.00 0.00 0.00 53 1020.6
20260904014019 69 315 3.0 8.0 0.00 0.00 0.00 53 1021.1
20260904013019 68 270 3.0 9.0 0.00 0.00 0.00 55 1021.1
20260904012019 67 315 2.0 9.0 0.00 0.00 0.00 58 1021.4
20260904011018 66 338 2.0 8.0 0.00 0.00 0.00 59 1021.5
20260904010018 66 315 2.0 4.0 0.00 0.00 0.00 59 1021.6
20260904005018 66 315 1.0 4.0 0.00 0.00 0.00 61 1022.0
20260904004018 65 315 2.0 4.0 0.00 0.00 0.00 61 1022.2
20260904003019 64 293 1.0 3.0 0.00 0.00 0.00 64 1022.3
20260904002018 64 293 3.0 5.0 0.00 0.00 0.00 64 1022.3
20260904001018 63 293 2.0 6.0 0.00 0.00 0.00 66 1022.6
20260904000019 62 270 3.0 7.0 0.00 0.00 0.00 66 1022.8
20260903235018 62 270 2.0 4.0 0.00 0.00 0.00 67 1022.8
20260903234018 61 293 2.0 4.0 0.00 0.00 0.00 68 1022.8
20260903233018 61 270 2.0 7.0 0.00 0.00 0.00 68 1023.0
20260903232018 60 293 2.0 5.0 0.00 0.00 0.00 69 1023.1
20260903231018 59 315 3.0 5.0 0.00 0.00 0.00 70 1023.2
20260903230029 58 315 2.0 4.0 0.00 0.00 0.00 74 1023.0
20260903225018 57 338 1.0 2.0 0.00 0.00 0.00 77 1022.7
20260903224018 56 338 1.0 3.0 0.00 0.00 0.00 79 1022.9
20260903223018 54 293 2.0 4.0 0.00 0.00 0.00 81 1022.8
20260903222018 53 293 2.0 6.0 0.00 0.00 0.00 84 1022.7
20260903221018 51 293 2.0 5.0 0.00 0.00 0.00 89 1022.5
20260903220018 49 293 1.0 3.0 0.00 0.00 0.00 91 1022.4
20260903215018 48 0.0 2.0 0.00 0.00 0.00 93 1022.1
20260903214018 46 0.0 2.0 0.00 0.00 0.00 92 1022.1
20260903213018 45 0.0 2.0 0.00 0.00 0.00 92 1022.2
20260903212018 44 0.0 0.0 0.00 0.00 0.00 91 1022.1
20260903211018 44 0.0 2.0 0.00 0.00 0.00 90 1021.8
20260903210018 44 0.0 0.0 0.00 0.00 0.00 90 1021.3
20260903205018 44 0.0 2.0 0.00 0.00 0.00 89 1021.2
20260903204018 44 0.0 2.0 0.00 0.00 0.00 89 1021.2
20260903203018 44 0.0 1.0 0.00 0.00 0.00 89 1021.2
20260903202018 44 0.0 1.0 0.00 0.00 0.00 89 1021.0
20260903201018 44 0.0 0.0 0.00 0.00 0.00 88 1021.1
20260903200018 45 0.0 0.0 0.00 0.00 0.00 88 1021.1
20260903195018 45 0.0 0.0 0.00 0.00 0.00 88 1021.0
20260903194018 45 0.0 0.0 0.00 0.00 0.00 88 1021.0
20260903193018 45 0.0 0.0 0.00 0.00 0.00 88 1020.8
20260903192018 45 45 1.0 2.0 0.00 0.00 0.00 87 1020.7
20260903191018 46 0.0 2.0 0.00 0.00 0.00 88 1020.9
20260903190017 46 0.0 1.0 0.00 0.00 0.00 87 1020.9
20260903185018 47 0.0 0.0 0.00 0.00 0.00 86 1020.9
20260903184018 47 0.0 1.0 0.00 0.00 0.00 86 1020.8
20260903183017 48 0.0 2.0 0.00 0.00 0.00 85 1020.7
20260903182017 48 0.0 0.0 0.00 0.00 0.00 84 1020.7
20260903181017 48 0.0 0.0 0.00 0.00 0.00 84 1020.7
20260903180017 49 0.0 0.0 0.00 0.00 0.00 84 1020.6
20260903175017 49 0.0 0.0 0.00 0.00 0.00 84 1020.6
20260903174017 49 0.0 1.0 0.00 0.00 0.00 85 1020.5
20260903173017 49 0.0 2.0 0.00 0.00 0.00 86 1020.6
20260903172017 49 0.0 2.0 0.00 0.00 0.00 85 1020.6
20260903171017 50 0.0 2.0 0.00 0.00 0.00 86 1020.7
20260903170017 49 23 1.0 1.0 0.00 0.00 0.00 87 1020.8
20260903165017 50 0.0 2.0 0.00 0.00 0.00 87 1020.9
20260903164017 49 0.0 1.0 0.00 0.00 0.00 88 1020.9
20260903163017 49 0.0 1.0 0.00 0.00 0.00 88 1020.9
20260903162017 49 0.0 1.0 0.00 0.00 0.00 89 1021.0
20260903161017 49 0.0 2.0 0.00 0.00 0.00 89 1021.1
20260903160017 48 0.0 0.0 0.00 0.00 0.00 90 1021.2
20260903155017 48 0.0 0.0 0.00 0.00 0.00 90 1021.3
20260903154017 47 0.0 2.0 0.00 0.00 0.00 90 1021.2
20260903153017 47 0.0 0.0 0.00 0.00 0.00 90 1021.3
20260903152017 46 0.0 2.0 0.00 0.02 0.00 89 1021.2
20260903151017 46 0.0 2.0 0.00 0.02 0.00 88 1021.1
20260903150017 46 0.0 0.0 0.00 0.02 0.00 88 1021.1
20260903145017 46 0.0 2.0 0.00 0.02 0.00 87 1021.1
20260903144017 46 0.0 2.0 0.00 0.02 0.00 87 1021.3
20260903143017 46 0.0 2.0 0.00 0.02 0.00 86 1021.3
20260903142017 47 0.0 2.0 0.00 0.02 0.00 86 1021.3
20260903141017 47 0.0 2.0 0.00 0.02 0.00 86 1021.4
20260903140019 47 0.0 2.0 0.00 0.02 0.02 86 1021.4
20260903135019 48 0.0 2.0 0.00 0.02 0.02 85 1021.5
20260903134019 48 0.0 0.0 0.00 0.02 0.02 85 1021.5
20260903133019 48 0.0 0.0 0.00 0.02 0.02 84 1021.5
20260903132019 48 0.0 0.0 0.00 0.02 0.02 83 1021.7
20260903131019 49 0.0 2.0 0.00 0.02 0.02 83 1021.6
20260903130019 49 0.0 0.0 0.00 0.02 0.02 83 1021.5
20260903125019 50 0 1.0 1.0 0.00 0.02 0.02 82 1021.5
20260903124018 51 0.0 1.0 0.00 0.02 0.02 81 1021.6
20260903123018 51 0.0 2.0 0.00 0.02 0.02 80 1021.7
20260903122019 52 0.0 2.0 0.00 0.02 0.02 81 1021.7
20260903121018 52 0.0 1.0 0.00 0.02 0.02 81 1021.8
20260903120019 52 0.0 0.0 0.00 0.02 0.02 79 1021.7
20260903115018 53 0.0 1.0 0.00 0.02 0.02 78 1021.7
20260903114019 53 0.0 0.0 0.00 0.02 0.02 77 1021.7
20260903113018 54 0.0 2.0 0.00 0.02 0.02 77 1021.7
20260903112018 54 0.0 1.0 0.00 0.02 0.02 76 1021.6
20260903111018 55 0.0 0.0 0.00 0.02 0.02 75 1021.4
20260903110018 55 0.0 2.0 0.00 0.02 0.02 74 1021.4
20260903105018 56 0.0 1.0 0.00 0.02 0.02 74 1021.3
20260903104018 56 0.0 0.0 0.00 0.02 0.02 74 1021.3
20260903103018 57 0.0 2.0 0.00 0.02 0.02 73 1021.2
20260903102018 57 0.0 1.0 0.00 0.02 0.02 72 1020.9
20260903101018 58 0.0 0.0 0.00 0.02 0.02 71 1020.8
20260903100018 58 0.0 2.0 0.00 0.02 0.02 71 1020.8
20260903095018 58 0.0 2.0 0.00 0.02 0.02 70 1020.7
20260903094018 59 0.0 2.0 0.00 0.02 0.02 70 1020.6
20260903093018 59 270 1.0 2.0 0.00 0.02 0.02 69 1020.4
20260903092018 60 0.0 1.0 0.00 0.02 0.02 68 1020.3
20260903091019 60 0.0 2.0 0.00 0.02 0.02 68 1020.3
20260903090018 61 0.0 1.0 0.00 0.02 0.02 66 1020.1
20260903085018 61 270 1.0 2.0 0.00 0.02 0.02 66 1020.1
20260903084018 61 0.0 2.0 0.00 0.02 0.02 65 1019.9
20260903083018 61 0.0 1.0 0.00 0.02 0.02 65 1019.7
20260903082018 61 0.0 2.0 0.00 0.02 0.02 64 1019.7
20260903081018 62 0.0 2.0 0.00 0.02 0.02 64 1019.7
20260903080018 62 248 2.0 3.0 0.00 0.02 0.02 62 1019.6
20260903075018 62 248 1.0 3.0 0.00 0.02 0.02 62 1019.4
20260903074018 62 248 2.0 4.0 0.00 0.02 0.02 62 1019.4
20260903073018 62 248 2.0 4.0 0.00 0.02 0.02 61 1019.3
20260903072018 62 248 2.0 7.0 0.00 0.02 0.02 61 1019.0
20260903071018 62 0 3.0 6.0 0.00 0.02 0.02 60 1018.9
20260903070018 63 0 5.0 9.0 0.00 0.02 0.02 59 1018.8
20260903065018 63 0 1.0 2.0 0.00 0.02 0.02 60 1018.6
20260903064018 63 0 2.0 5.0 0.00 0.02 0.02 60 1018.6
20260903063018 63 248 5.0 11.0 0.00 0.02 0.02 59 1018.5
20260903062018 64 248 3.0 7.0 0.00 0.02 0.02 58 1018.4
20260903061018 63 248 3.0 8.0 0.00 0.02 0.02 60 1018.4